Regional Weather Roundup
Issued by NWS

Home | Current Version | Previous Version | Text Only | Print | Product List | Glossary On
Versions: 1 2 3 4 5 6 7 8 9 10 11 12 13 14 15 16 17 18 19 20 21 22 23 24 25 26 27 28 29 30 31 32 33 34 35 36 37 38 39 40 41 42 43 44 45 46 47 48 49 50
000
ASUS43 KDMX 252101
RWRIA

WEATHER ROUNDUP FOR IOWA
NATIONAL WEATHER SERVICE DES MOINES IA
400 PM CDT TUE JUL 25 2017

NOTE: "FAIR" INDICATES FEW OR NO CLOUDS BELOW 12,000 FEET WITH NO
SIGNIFICANT WEATHER AND/OR OBSTRUCTIONS TO VISIBILITY.

* - THESE STATIONS ARE NOT NWS STATIONS...THUS NOT UNDER NWS
QUALITY CONTROL.  THEY ALSO DO NOT REPORT WEATHER SUCH
AS PRECIPITATION OR FOG.

IAZ001>003-012>014-020>022-031>034-043>046-252200-
   NORTHWEST IOWA

CITY           SKY/WX    TMP DP  RH WIND       PRES   REMARKS
CARROLL *      SUNNY     90  73  58 S15       30.00S HX  98
CHEROKEE *     SUNNY     91  72  53 S17G24    29.96S HX  99
DENISON *      SUNNY     90  75  62 S15       30.00F HX 100
ORANGE CITY *  SUNNY     93  73  52 S15G22    29.93F HX 102
SHELDON *      SUNNY     90  75  62 S15G22    29.92F HX 100
SIOUX CITY     SUNNY     96  73  47 S12G24    29.93F HX 105
SPENCER        SUNNY     92  70  48 S18G26    29.95F HX  97
STORM LAKE *   SUNNY     90  73  58 S20       29.98F HX  98
$$

IAZ055>058-069>071-079>083-090>094-252200-
   SOUTHWEST IOWA

CITY           SKY/WX    TMP DP  RH WIND       PRES   REMARKS
ATLANTIC *     SUNNY     91  73  55 S15       30.01S HX 100
AUDUBON *      SUNNY     91  73  55 S14       30.02F HX 100
CLARINDA *     SUNNY     90  77  66 S8G17     30.04S HX 102
COUNCIL BLFS * SUNNY     91  77  62 SE13G21   29.99F HX 105
CRESTON *      SUNNY     91  72  52 S14G20    30.06S HX  98
HARLAN  *      SUNNY     90  73  58 S14G22    30.03F HX  98
LAMONI         SUNNY     89  75  63 S10       30.06F HX  99
RED OAK *      SUNNY     91  75  59 S12       30.01F HX 102
SHENANDOAH *   SUNNY     91  75  59 S15G21    30.01F HX 102
$$

IAZ047>049-059>061-072>074-084-252200-
   CENTRAL IOWA

CITY           SKY/WX    TMP DP  RH WIND       PRES   REMARKS
AMES           SUNNY     89  74  60 SE14      30.02F HX  98
ANKENY *       SUNNY     91  72  52 S9G18     30.03F HX  98
BOONE *        SUNNY     90  73  58 S12G18    30.01F HX  98
CHARITON *     SUNNY     91  70  49 SE10G20   30.05F HX  97
DES MOINES     PTSUNNY   95  70  44 S16       30.02F HX 101
GRINNELL*      SUNNY     86  67  53 SE10G18   30.08F HX  89
KNOXVILLE *    SUNNY     91  70  49 S13       30.04F HX  97
MARSHALLTOWN   SUNNY     86  70  58 SE17G24   30.05F HX  90
NEWTON *       SUNNY     88  72  58 SE10      30.06S HX  94
PELLA *        SUNNY     92  67  44 S7        30.06F HX  95
PERRY *          N/A     89  75  63 S9        30.02F HX  99
$$

IAZ004>006-015-016-023>025-035-036-252200-
   NORTH CENTRAL IOWA

CITY           SKY/WX    TMP DP  RH WIND       PRES   REMARKS
ALGONA *       SUNNY     90  73  58 S21G30    29.98F HX  98
ESTHERVILLE    SUNNY     89  74  60 S20G28    29.95S HX  98
FORT DODGE *   SUNNY     91  72  52 S16       30.00F HX  98
MASON CITY     SUNNY     85  70  60 S17G25    30.03F HX  89
FOREST CITY *    N/A     86  70  58 S15G22    30.01F HX  90
WEBSTER CITY * SUNNY     90  73  58 S14G20    29.99F HX  98
IOWA FALLS *     N/A     86  71  59 S16       30.05F HX  91
$$

IAZ007>011-017>019-026>030-037>042-050>054-066-252200-
   NORTHEAST IOWA

CITY           SKY/WX    TMP DP  RH WIND       PRES   REMARKS
CEDAR RAPIDS   MOSUNNY   81  71  71 SE12      30.09F HX  85
CHARLES CITY * SUNNY     82  72  69 S15G21    30.05S HX  87
DECORAH *      SUNNY     79  68  69 S13G18    30.05S HX  81
DUBUQUE        MOSUNNY   78  66  66 S16G22    30.12F HX  80
MONTICELLO *   CLOUDY    81  68  65 SE13      30.11R HX  83
OELWEIN *      SUNNY     79  70  73 S21       30.07F HX  81
WATERLOO       SUNNY     83  68  60 SE20G25   30.04F HX  86
$$

IAZ064-065-067-068-078-252200-
   EAST CENTRAL IOWA

CITY           SKY/WX    TMP DP  RH WIND       PRES   REMARKS
DAVENPORT      MOSUNNY   79  67  66 SE12      30.14F HX  81
IOWA CITY      SUNNY     84  69  60 SE12      30.12S HX  88
MUSCATINE *    PTSUNNY   84  66  54 SE10G17   30.10F HX  86
QUAD CITIES    MOSUNNY   82  67  60 SE12      30.12F HX  84
$$

IAZ062-063-075>077-085>089-095>099-252200-
   SOUTHEAST IOWA

CITY           SKY/WX    TMP DP  RH WIND       PRES   REMARKS
BURLINGTON     MOSUNNY   85  70  60 E8        30.10F HX  89
FAIRFIELD *    SUNNY     88  64  45 SE8       30.08F HX  89
FORT MADISON * SUNNY     84  70  61 SE9       30.10F HX  88
KEOKUK *       SUNNY     86  68  54 E12       30.08F HX  89
OSKALOOSA *      N/A     89  66  45 SE12      30.07F HX  92
OTTUMWA        SUNNY     91  66  43 SE12      30.06F HX  93
WASHINGTON *   SUNNY     84  70  61 SE7       30.11R HX  88
$$

ABBREVIATIONS USED IN REMARKS
   TC - TEMPERATURES IN CELSIUS
  WCI - WIND CHILL INDEX
   HX - HEAT INDEX
  VSB - VISIBILITY
$$





USA.gov is the U.S. government's official web portal to all federal, state and local government web resources and services.